Weather reports worldwide

Advertisment
Andernach, Germany (10520): temperature & dewpoint: 12.01.2018 07:00:00 - 18.01.2018 07:00:00 (CET)Andernach, Germany (10520): temperature 5cm & temperature -5cm: 12.01.2018 07:00:00 - 18.01.2018 07:00:00 (CET)Andernach, Germany (10520): temperature -20cm & temperature -100cm: 12.01.2018 07:00:00 - 18.01.2018 07:00:00 (CET)Andernach, Germany (10520): wind speed & gusts: 12.01.2018 07:00:00 - 18.01.2018 07:00:00 (CET)Andernach, Germany (10520): wind direction: 12.01.2018 07:00:00 - 18.01.2018 07:00:00 (CET)Andernach, Germany (10520): reduced air pressure: 12.01.2018 07:00:00 - 18.01.2018 07:00:00 (CET)Andernach, Germany (10520): visibility: 12.01.2018 07:00:00 - 18.01.2018 07:00:00 (CET)Andernach, Germany (10520): sunshine duration: 12.01.2018 07:00:00 - 18.01.2018 07:00:00 (CET)Andernach, Germany (10520): precipitation: 12.01.2018 07:00:00 - 18.01.2018 07:00:00 (CET)
Date & Time tt [°C] td [°C] tt 5cm [°C] tt -5cm [°C] tt -20cm [°C] tt -100cm [°C] ff [km/h] ff [kn] fx [km/h] fx [kn] dd ppp [hPa] vv [km] sd [min] rr [mm]
18.01.2018 07:00:00 4,2 1,5 2,6 2,4 2,7 7,2 23 13 47 26 SSW 999,2 44 0 0,1
18.01.2018 06:00:00 4,4 2,0 2,7 2,2 2,7 7,2 21 11 36 19 SSW 1000,6 19 0 0,3
18.01.2018 05:00:00 4,5 1,7 2,7 1,8 2,7 7,2 11 6 23 12 SSW 1003,4 39 0 0,0
18.01.2018 04:00:00 3,7 1,2 2,3 1,5 2,7 7,2 10 5 26 14 SW 1006,2 70 0 0,0
18.01.2018 03:00:00 3,6 0,6 2,2 1,2 2,8 7,2 15 8 25 13 SW 1007,7 70 0 0,0
18.01.2018 02:00:00 3,1 0,1 1,6 1,1 2,8 7,3 9 5 23 12 SW 1009,0 55 0 0,0
18.01.2018 01:00:00 3,4 -0,2 1,5 1,1 2,9 7,3 13 7 23 12 SW 1009,6 39 0 0,0
18.01.2018 00:00:00 2,6 -1,0 0,0 1,1 3,0 7,3 5 3 26 14 WSW 1010,0 41 0 0,0
17.01.2018 23:00:00 3,3 -1,1 1,7 1,1 3,1 7,3 18 10 26 14 SW 1010,2 48 0 0,0
17.01.2018 22:00:00 4,4 -1,5 0,7 1,2 3,3 7,3 13 7 29 16 WSW 1009,8 50 0 0,0
17.01.2018 21:00:00 4,3 -2,2 0,4 1,6 3,4 7,3 7 4 27 15 WNW 1009,4 64 0 0,0
17.01.2018 20:00:00 4,5 -2,1 1,6 2,0 3,4 7,3 11 6 29 16 WNW 1009,3 69 0 0,0
17.01.2018 19:00:00 4,9 -1,8 2,4 2,5 3,5 7,3 19 10 32 18 WNW 1009,0 70 0 0,0
17.01.2018 18:00:00 4,1 -0,9 1,1 2,9 3,5 7,3 9 5 37 20 WNW 1008,3 65 0 0,0
17.01.2018 17:00:00 4,7 -0,5 2,7 3,6 3,4 7,3 20 11 37 20 W 1007,0 70 0 0,2
17.01.2018 16:00:00 4,4 -0,5 3,3 4,0 3,2 7,3 18 10 36 20 W 1006,3 49 11 0,0
17.01.2018 15:00:00 5,3 -1,2 4,5 3,9 3,1 7,3 19 10 38 20 W 1005,1 70 20 0,0
17.01.2018 14:00:00 4,7 -0,7 4,7 3,5 3,0 7,3 17 9 34 18 W 1004,4 70 4 0,0
17.01.2018 13:00:00 3,6 0,0 3,3 3,3 2,9 7,3 19 10 37 20 WSW 1004,1 37 18 0,0
17.01.2018 12:00:00 4,6 -1,4 5,5 2,4 2,8 7,3 19 10 38 20 W 1003,4 70 17 0,0
17.01.2018 11:00:00 3,8 -2,6 1,6 1,4 2,9 7,3 19 10 34 18 WNW 1002,7 70 33 0,0
17.01.2018 10:00:00 2,4 -0,6 0,4 1,1 3,0 7,3 6 3 36 19 NW 1001,5 70 5 0,1
17.01.2018 09:00:00 1,5 -0,9 -0,6 1,1 3,0 7,3 4 2 18 10 SSW 1000,1 67 0 0,0
17.01.2018 08:00:00 1,5 -0,7 0,0 1,1 3,1 7,3 17 9 50 27 NW 998,9 70 0 0,4
17.01.2018 07:00:00 3,8 -2,0 1,4 1,2 3,2 7,3 12 7 22 12 W 997,0 70 0 0,0
17.01.2018 06:00:00 3,5 -1,6 1,1 1,2 3,3 7,3 10 6 28 15 WNW 996,2 70 0 0,0
17.01.2018 05:00:00 3,9 -1,0 0,8 1,2 3,5 7,3 9 5 22 12 W 995,7 70 0 0,0
17.01.2018 04:00:00 3,6 -0,1 0,4 1,6 3,6 7,3 6 3 18 10 W 995,3 70 0 0,0
17.01.2018 03:00:00 2,9 1,3 0,4 2,0 3,6 7,3 6 4 20 11 SW 994,9 70 0 0,3
17.01.2018 02:00:00 3,3 1,3 2,1 1,8 3,8 7,3 13 7 25 14 SW 994,5 5 0 0,1
17.01.2018 01:00:00 1,6 1,3 0,3 1,7 4,0 7,3 4 2 7 4 W 995,6 16 0 0,0
17.01.2018 00:00:00 0,9 0,5 -0,6 1,8 4,2 7,3 2 1 6 3 S 996,1 12 0 0,0
16.01.2018 23:00:00 1,3 0,6 -1,4 2,0 4,3 7,4 3 2 8 4 NNE 996,4 35 0 0,0
16.01.2018 22:00:00 1,2 0,6 -2,0 2,6 4,4 7,4 5 3 9 5 SSW 996,9 45 0 0,0
16.01.2018 21:00:00 3,2 0,7 1,2 3,2 4,6 7,4 7 4 42 23 NNW 997,1 70 0 1,0
16.01.2018 20:00:00 3,6 1,1 1,5 3,4 4,7 7,4 34 19 65 35 W 996,7 3,6 0 0,6
16.01.2018 19:00:00 4,8 0,6 2,0 3,8 4,8 7,4 12 6 23 12 SW 996,5 70 0 0,0
16.01.2018 18:00:00 5,1 1,0 2,6 4,6 4,8 7,4 11 6 34 18 WNW 996,7 70 0 0,0
16.01.2018 17:00:00 6,0 1,0 4,1 5,2 4,8 7,4 17 9 40 22 W 996,9 27 0 0,0
16.01.2018 16:00:00 7,8 -0,5 5,7 6,0 4,7 7,4 16 9 54 29 W 995,8 70 30 0,0
16.01.2018 15:00:00 8,8 -1,8 7,7 6,8 4,5 7,4 30 16 50 27 W 995,4 70 52 0,0
16.01.2018 14:00:00 9,3 0,0 9,7 6,8 4,2 7,4 18 10 59 32 WNW 995,3 63 56 0,0
16.01.2018 13:00:00 8,7 0,5 8,8 6,3 4,1 7,4 23 12 67 36 W 995,2 70 43 0,0
16.01.2018 12:00:00 8,9 2,2 9,1 5,7 3,9 7,4 17 9 37 20 W 994,4 70 39 0,0
16.01.2018 11:00:00 7,5 3,2 6,6 4,2 3,9 7,4 17 9 42 23 WSW 994,6 70 15 0,0
16.01.2018 10:00:00 7,3 2,8 5,7 3,5 3,9 7,4 18 10 32 17 WSW 994,7 63 0 0,0
16.01.2018 09:00:00 6,4 3,1 4,2 3,2 4,0 7,4 9 5 15 8 SW 994,6 70 0 0,0
16.01.2018 08:00:00 4,8 2,6 1,2 3,5 4,0 7,4 4 2 23 12 NNW 994,3 70 0 0,0
16.01.2018 07:00:00 7,0 2,5 4,6 4,0 4,0 7,4 16 9 38 20 W 994,1 70 0 0,1
16.01.2018 06:00:00 6,1 3,2 4,2 4,0 3,9 7,4 11 6 30 16 SW 994,7 70 0 0,0
16.01.2018 05:00:00 6,6 2,9 5,1 4,1 3,9 7,4 11 6 20 11 SSW 995,5 70 0 0,0
16.01.2018 04:00:00 6,9 3,2 5,3 4,1 3,9 7,4 13 7 24 13 SSW 996,2 70 0 0,0
16.01.2018 03:00:00 8,0 2,5 6,0 4,0 3,8 7,4 14 7 30 16 SW 996,5 70 0 0,0
16.01.2018 02:00:00 8,0 3,0 5,2 4,2 3,8 7,4 17 9 41 22 SW 996,3 70 0 0,0
16.01.2018 01:00:00 7,7 4,2 5,7 4,1 3,7 7,4 11 6 25 14 SW 996,0 70 0 0,0
16.01.2018 00:00:00 7,1 4,6 5,5 4,0 3,6 7,4 15 8 30 16 SW 996,1 70 0 0,0
15.01.2018 23:00:00 6,5 3,9 4,5 3,9 3,5 7,4 21 11 39 21 SW 996,4 70 0 0,5
15.01.2018 22:00:00 6,0 2,7 4,1 3,8 3,5 7,4 14 8 42 23 SSW 997,5 70 0 0,0
15.01.2018 21:00:00 5,9 2,8 4,0 3,8 3,4 7,4 19 10 40 22 SSW 998,1 70 0 0,1
15.01.2018 20:00:00 6,0 3,4 4,2 3,8 3,2 7,4 19 10 41 22 SSW 999,3 17 0 0,4
15.01.2018 19:00:00 6,3 3,5 4,4 3,6 3,1 7,4 14 8 36 20 S 1000,5 21 0 0,4
15.01.2018 18:00:00 6,5 3,0 4,6 3,4 3,0 7,4 19 11 39 21 S 1001,9 19 0 0,0
15.01.2018 17:00:00 6,6 3,0 5,4 3,2 2,9 7,4 20 11 43 23 S 1003,8 61 0 0,0
15.01.2018 16:00:00 7,0 2,5 4,8 2,9 2,8 7,4 15 8 37 20 SSW 1005,7 28 0 0,1
15.01.2018 15:00:00 7,0 2,6 5,7 2,3 2,7 7,4 16 9 39 21 S 1006,6 38 0 0,0
15.01.2018 14:00:00 6,3 2,3 5,2 0,9 2,7 7,4 19 10 40 21 SSW 1009,1 28 0 0,0
15.01.2018 13:00:00 4,3 1,4 3,1 0,8 2,8 7,4 2 1 10 6 WNW 1011,4 15 0 0,0
15.01.2018 12:00:00 4,0 0,8 3,2 0,8 2,8 7,4 6 4 14 8 ESE 1012,7 15 0 0,0
15.01.2018 11:00:00 3,2 0,5 2,1 0,8 2,9 7,4 5 3 11 6 E 1014,7 15 0 0,0
15.01.2018 10:00:00 2,8 0,0 2,1 0,8 2,9 7,4 9 5 13 7 E 1015,4 14 0 0,0
15.01.2018 09:00:00 1,9 -0,6 0,7 0,8 3,1 7,4 8 4 10 5 ESE 1016,1 14 0 0,0
15.01.2018 08:00:00 0,3 -0,9 -0,2 0,8 3,1 7,4 3 2 6 4 SSE 1016,8 11 0 0,0
15.01.2018 07:00:00 0,0 -1,2 -0,5 0,8 3,2 7,4 3 2 7 4 SSW 1017,4 11 0 0,0
15.01.2018 06:00:00 -0,3 -1,5 -1,7 0,8 3,3 7,4 4 2 8 4 S 1017,8 11 0 0,0
15.01.2018 05:00:00 -0,8 -1,7 -1,2 0,8 3,4 7,4 3 2 8 4 SSW 1018,6 8 0 0,0
15.01.2018 04:00:00 -1,0 -2,1 -1,9 0,9 3,5 7,4 5 3 8 4 SSE 1019,5 8 0 0,0
15.01.2018 03:00:00 -2,0 -2,5 -2,6 0,9 3,6 7,4 3 2 6 3 SW 1020,4 7 0 0,0
15.01.2018 02:00:00 -1,9 -2,8 -3,3 1,0 3,7 7,4 6 3 8 4 SSW 1020,6 7 0 0,0
15.01.2018 01:00:00 -1,7 -2,5 -3,6 1,1 3,9 7,4 6 3 8 5 SSW 1021,4 8 0 0,0
15.01.2018 00:00:00 -1,8 -2,6 -4,8 1,3 4,0 7,4 6 3 7 4 S 1021,9 8 0 0,0
14.01.2018 23:00:00 -1,5 -2,4 -3,6 1,4 4,2 7,4 4 2 8 4 SSW 1022,1 9 0 0,0
14.01.2018 22:00:00 -1,2 -2,0 -4,5 1,6 4,3 7,4 5 3 7 4 SSW 1022,5 8 0 0,0
14.01.2018 21:00:00 -0,7 -1,9 -4,2 1,9 4,5 7,4 4 2 6 4 S 1022,4 9 0 0,0
14.01.2018 20:00:00 0,2 -1,6 -3,6 2,3 4,6 7,4 6 3 11 6 SSW 1022,3 13 0 0,0
14.01.2018 19:00:00 2,1 -1,1 -3,1 3,2 4,6 7,4 7 4 18 10 SSE 1022,3 20 0 0,0
14.01.2018 18:00:00 3,7 -1,0 2,6 3,7 4,6 7,4 11 6 23 13 SSE 1022,1 25 0 0,0
14.01.2018 17:00:00 3,8 -0,9 2,6 4,1 4,6 7,4 9 5 22 12 S 1022,1 24 0 0,0
14.01.2018 16:00:00 4,1 -1,3 3,3 4,4 4,6 7,4 17 9 25 13 SE 1022,0 25 0 0,0
14.01.2018 15:00:00 4,2 -1,0 3,7 4,4 4,5 7,4 12 6 22 12 SE 1021,8 22 0 0,0
14.01.2018 14:00:00 4,0 -1,5 3,7 4,3 4,5 7,4 14 7 21 11 SSE 1022,1 26 0 0,0
14.01.2018 13:00:00 3,9 -1,1 3,7 4,0 4,5 7,4 13 7 22 12 ESE 1022,3 21 0 0,0
14.01.2018 12:00:00 3,5 -1,4 3,2 3,6 4,5 7,4 15 8 26 14 ESE 1022,7 19 0 0,0
14.01.2018 11:00:00 3,2 -1,3 2,7 3,3 4,5 7,4 15 8 27 15 SE 1023,0 18 0 0,0
14.01.2018 10:00:00 3,1 -1,4 2,4 3,2 4,6 7,4 16 9 25 14 SE 1022,8 18 0 0,0
14.01.2018 09:00:00 3,1 -1,4 2,2 3,2 4,7 7,4 15 8 25 13 SE 1022,4 19 0 0,0
14.01.2018 08:00:00 3,2 -0,9 2,2 3,4 4,7 7,4 10 6 18 10 ESE 1022,2 21 0 0,0
14.01.2018 07:00:00 3,3 -0,9 2,3 3,5 4,8 7,4 13 7 22 12 ESE 1022,3 24 0 0,0
14.01.2018 06:00:00 3,7 -0,5 2,7 3,6 4,9 7,4 13 7 21 11 ESE 1022,0 24 0 0,0
14.01.2018 05:00:00 4,0 -0,2 2,9 3,7 4,9 7,4 16 8 26 14 ESE 1021,8 23 0 0,0
14.01.2018 04:00:00 4,1 0,0 3,1 3,9 5,0 7,4 13 7 23 12 ESE 1021,9 22 0 0,0
14.01.2018 03:00:00 4,5 0,0 3,4 4,0 5,1 7,4 15 8 24 13 ESE 1021,9 24 0 0,0
14.01.2018 02:00:00 4,7 0,0 3,6 4,1 5,1 7,4 14 8 26 14 ESE 1022,1 27 0 0,0
14.01.2018 01:00:00 5,0 0,2 3,8 4,2 5,2 7,4 17 9 29 16 ESE 1022,3 28 0 0,0
14.01.2018 00:00:00 5,3 0,4 4,0 4,3 5,2 7,4 15 8 24 13 ESE 1022,7 29 0 0,0
13.01.2018 23:00:00 5,4 0,2 4,2 4,4 5,3 7,4 17 9 26 14 SE 1022,9 27 0 0,0
13.01.2018 22:00:00 5,4 0,5 4,1 4,4 5,4 7,4 14 7 23 13 ESE 1023,0 25 0 0,0
13.01.2018 21:00:00 5,6 0,3 4,3 4,5 5,4 7,4 15 8 21 12 ESE 1023,2 25 0 0,0
13.01.2018 20:00:00 5,8 0,3 4,4 4,7 5,5 7,4 13 7 23 12 ESE 1023,4 28 0 0,0
13.01.2018 19:00:00 5,9 0,0 4,5 4,8 5,5 7,4 16 9 26 14 E 1023,6 31 0 0,0
13.01.2018 18:00:00 5,8 0,2 4,5 5,0 5,6 7,4 15 8 27 14 ESE 1023,8 29 0 0,0
13.01.2018 17:00:00 6,1 0,0 4,7 5,4 5,6 7,4 16 8 29 16 SE 1023,9 28 0 0,0
13.01.2018 16:00:00 6,3 0,3 5,1 5,7 5,5 7,4 13 7 22 12 E 1023,9 34 0 0,0
13.01.2018 15:00:00 6,2 0,4 5,3 5,9 5,5 7,4 13 7 20 11 ESE 1024,7 33 0 0,0
13.01.2018 14:00:00 6,1 1,4 5,5 5,8 5,5 7,4 11 6 18 10 SE 1025,3 25 0 0,0
13.01.2018 13:00:00 5,9 1,4 5,3 5,6 5,4 7,4 9 5 14 8 SE 1026,0 24 0 0,0
13.01.2018 12:00:00 5,5 1,4 5,0 5,2 5,5 7,4 3 1 9 5 S 1026,5 19 0 0,0
13.01.2018 11:00:00 5,0 1,0 4,3 4,8 5,5 7,4 5 3 13 7 SSE 1026,8 18 0 0,0
13.01.2018 10:00:00 4,5 1,2 3,6 4,8 5,6 7,4 8 5 27 15 SSE 1026,7 15 0 0,0
13.01.2018 09:00:00 4,6 1,4 3,7 5,0 5,6 7,4 17 9 28 15 SE 1026,6 14 0 0,0
13.01.2018 08:00:00 5,0 2,2 4,1 5,2 5,6 7,4 11 6 19 11 S 1026,1 11 0 0,0
13.01.2018 07:00:00 5,5 3,5 4,5 5,3 5,7 7,4 6 3 12 7 SSE 1025,9 9 0 0,0
13.01.2018 06:00:00 5,7 3,6 4,6 5,4 5,7 7,4 7 4 11 6 SE 1026,0 10 0 0,0
13.01.2018 05:00:00 6,0 3,8 4,9 5,4 5,7 7,4 6 3 14 8 SSE 1026,2 11 0 0,0
13.01.2018 04:00:00 6,1 4,1 5,0 5,5 5,8 7,4 8 4 14 8 SE 1026,4 10 0 0,0
13.01.2018 03:00:00 5,4 4,7 4,4 5,5 5,8 7,4 3 2 4 2 S 1026,7 3,8 0 0,0
13.01.2018 02:00:00 5,5 4,7 4,5 5,6 5,8 7,4 3 2 5 3 S 1026,8 4,2 0 0,0
13.01.2018 01:00:00 5,7 4,7 4,4 5,6 5,9 7,4 2 1 3 2 SSW 1026,9 4,5 0 0,0
13.01.2018 00:00:00 6,0 4,9 4,9 5,7 5,9 7,4 2 1 7 4 W 1027,1 5 0 0,0
12.01.2018 23:00:00 6,2 4,7 5,0 5,8 5,9 7,4 4 2 9 5 NNW 1027,1 5 0 0,0
12.01.2018 22:00:00 6,3 4,6 5,1 5,8 6,0 7,4 5 3 9 5 NNW 1027,2 5 0 0,0
12.01.2018 21:00:00 6,3 4,5 5,1 5,9 6,0 7,4 5 3 8 5 NNW 1027,0 6 0 0,0
12.01.2018 20:00:00 6,3 4,7 5,1 6,0 6,1 7,4 6 3 10 5 NNW 1026,8 5 0 0,0
12.01.2018 19:00:00 6,2 4,6 4,5 6,2 6,1 7,4 5 3 13 7 NNW 1026,7 5 0 0,0
12.01.2018 18:00:00 6,5 4,4 5,5 6,5 6,1 7,4 6 3 16 9 NNW 1026,9 6 0 0,0
12.01.2018 17:00:00 6,6 4,6 5,6 6,8 6,1 7,4 11 6 17 9 NNW 1026,7 6 0 0,0
12.01.2018 16:00:00 6,8 4,6 6,2 7,0 6,0 7,4 7 4 16 9 NW 1026,3 6 0 0,0
12.01.2018 15:00:00 6,8 4,6 6,5 7,2 5,9 7,4 8 5 16 9 NNW 1026,1 6 0 0,0
12.01.2018 14:00:00 6,7 4,6 6,5 7,2 5,8 7,4 10 5 18 10 NW 1026,1 6 0 0,0
12.01.2018 13:00:00 6,6 4,4 6,7 6,8 5,8 7,4 10 5 18 10 NW 1026,1 6 0 0,0
12.01.2018 12:00:00 6,5 5,1 6,3 6,4 5,7 7,4 10 5 21 12 NNW 1026,6 4,5 0 0,0
12.01.2018 11:00:00 6,0 5,0 5,7 6,1 5,7 7,4 12 7 21 11 NW 1026,5 3,2 0 0,0
12.01.2018 10:00:00 5,9 5,2 5,4 5,9 5,7 7,4 10 6 21 11 NNW 1025,9 2,2 0 0,0
12.01.2018 09:00:00 6,3 5,5 5,5 5,9 5,7 7,4 10 6 17 9 NNW 1025,2 2,5 0 0,0
12.01.2018 08:00:00 6,6 5,7 5,3 5,9 5,7 7,4 8 4 12 7 NNW 1024,7 3,1 0 0,0
12.01.2018 07:00:00 6,6 5,8 5,6 5,9 5,7 7,4 6 4 14 7 NW 1024,4 3,4 0 0,0

tt = temperature
td = dewpoint
tt 5cm = temperature 5cm
tt -5cm = temperature -5cm
tt -20cm = temperature -20cm
tt -100cm = temperature -100cm
ff = wind speed
fx = gusts
dd = wind direction
ppp = reduced air pressure
vv = visibility
sd = sunshine duration
rr = precipitation

Next stations